GFSFLT2_con_mucape_069.txt.gz
CAPE
0 0 0 0 0 0 0 0 0 0 0 0 0 0 15 64 267 405 393 155 218 243 182 156 137 123 191 121 68 0 69 84
0 0 0 0 0 0 0 0 0 0 0 0 0 0 69 44 188 365 342 316 171 265 247 184 194 209 290 247 201 117 27 61
0 0 0 0 0 0 0 0 0 0 0 0 0 0 8 64 26 114 288 279 248 221 315 291 269 304 313 266 319 256 184 78
0 0 0 0 0 0 0 0 0 0 0 0 0 0 46 142 59 32 66 189 198 206 313 262 304 319 351 339 312 317 292 98
0 0 0 0 0 0 0 0 0 0 0 0 0 14 18 199 177 94 204 304 212 206 239 256 319 257 309 211 277 336 326 259
0 0 0 0 0 0 0 0 0 0 0 0 0 2 0 110 333 299 320 395 288 240 243 284 331 297 358 266 223 183 242 307
0 0 0 0 0 0 0 0 0 0 0 0 0 0 0 0 252 297 466 381 292 233 313 197 283 284 196 162 209 223 191 244
0 0 0 0 0 0 0 0 0 0 0 0 0 0 0 0 0 16 262 312 259 349 245 189 79 43 53 253 342 374 420 340
0 0 0 0 0 0 0 0 0 0 0 0 0 0 0 0 0 0 0 79 176 227 167 193 108 128 258 184 186 429 521 433
0 0 0 0 0 0 0 0 0 0 0 0 0 0 0 0 0 0 0 20 76 105 84 119 155 237 550 468 326 298 516 608
0 0 0 0 0 0 0 0 0 0 0 0 0 0 0 0 0 0 0 0 0 82 50 146 86 133 538 994 409 242 461 737
0 0 0 0 0 0 0 0 0 0 0 0 0 0 0 0 0 0 0 0 0 0 120 50 84 116 96 305 434 316 207 547
0 0 0 0 0 0 0 0 0 0 0 0 0 0 0 0 0 0 0 0 0 0 0 5 0 55 94 155 199 261 289 339
0 0 0 0 0 0 0 0 0 0 0 0 0 0 0 0 0 0 0 0 0 0 0 0 0 1 0 14 86 159 207 193
0 0 0 0 0 0 0 0 0 0 0 0 0 0 0 0 0 0 0 0 0 0 0 0 0 0 0 92 0 1 135 70
0 0 0 0 0 0 0 0 0 0 0 0 0 0 0 0 0 0 0 0 0 0 0 0 0 0 0 0 0 0 0 100
0 0 0 0 0 0 0 0 0 0 0 0 0 0 0 0 0 0 0 0 0 4 15 5 0 0 0 0 0 0 0 26
0 0 0 0 0 0 0 0 0 0 0 0 0 0 0 0 0 0 0 0 0 2 9 4 2 0 0 0 0 0 0 2
0 0 0 0 0 0 0 0 0 0 0 0 0 0 0 0 0 20 19 4 42 42 4 4 1 0 0 0 0 0 0 0

GFSFLT2_con_mucape_072.txt.gz
CAPE
0 0 0 0 0 0 0 0 0 0 0 0 0 0 1 10 33 100 358 228 238 279 179 82 67 85 137 71 38 0 0 0
0 0 0 0 0 0 0 0 0 0 0 0 0 0 0 56 38 53 348 421 274 288 290 218 163 206 180 137 147 112 97 54
0 0 0 0 0 0 0 0 0 0 0 0 0 0 2 64 105 56 70 435 407 322 287 283 240 221 226 172 190 210 215 174
0 0 0 0 0 0 0 0 0 0 0 0 0 0 1 111 129 173 98 119 445 341 241 186 237 249 267 167 110 226 243 255
0 0 0 0 0 0 0 0 0 0 0 0 0 0 0 50 189 266 297 207 209 250 326 290 156 198 237 258 174 108 242 238
0 0 0 0 0 0 0 0 0 0 0 0 0 0 0 18 80 227 430 394 257 293 308 251 233 208 259 253 207 218 212 253
0 0 0 0 0 0 0 0 0 0 0 0 0 0 0 0 27 41 524 663 418 300 304 316 320 315 296 198 262 284 295 260
0 0 0 0 0 0 0 0 0 0 0 0 0 0 0 0 0 0 0 267 698 605 386 251 191 194 195 296 335 306 275 275
0 0 0 0 0 0 0 0 0 0 0 0 0 0 0 0 0 0 0 15 73 262 493 395 320 170 242 277 192 169 278 307
0 0 0 0 0 0 0 0 0 0 0 0 0 0 0 0 0 0 0 0 0 0 21 142 186 198 474 505 500 254 225 386
0 0 0 0 0 0 0 0 0 0 0 0 0 0 0 0 0 0 0 0 0 0 0 40 138 106 124 684 679 304 199 363
0 0 0 0 0 0 0 0 0 0 0 0 0 0 0 0 0 0 0 0 0 0 0 0 6 53 93 88 116 229 296 184
0 0 0 0 0 0 0 0 0 0 0 0 0 0 0 0 0 0 0 0 0 0 0 0 0 0 19 58 48 20 82 197
0 0 0 0 0 0 0 0 0 0 0 0 0 0 0 0 0 0 0 0 0 0 0 0 0 0 1 2 0 29 48 65
0 0 0 0 0 0 0 0 0 0 0 0 0 0 0 0 0 0 0 0 0 0 0 0 0 0 0 0 0 0 0 38
0 0 0 0 0 0 0 0 0 0 0 0 0 0 0 0 0 0 0 0 0 0 0 0 0 0 0 0 0 0 0 2
0 0 0 0 0 0 0 0 0 0 0 0 0 0 0 0 0 0 0 0 0 0 0 0 4 0 0 0 0 0 0 0
0 0 0 0 0 0 0 0 0 0 0 0 0 0 0 0 0 0 0 0 0 0 0 0 15 10 0 0 0 0 0 0
0 0 0 0 0 0 0 0 0 0 0 0 0 0 0 0 0 0 0 0 28 7 0 1 8 9 2 0 0 0 0 0

GFSFLT2_con_mucape_075.txt.gz
CAPE
0 0 0 0 0 0 0 0 0 0 0 0 0 26 14 20 35 108 342 258 557 427 200 193 208 300 359 561 727 608 639 986
0 0 0 0 0 0 0 0 0 0 0 0 1 35 7 31 121 66 129 498 546 714 342 326 253 286 310 389 662 927 691 786
0 0 0 0 0 0 0 0 0 0 0 6 4 1 3 107 141 103 307 433 723 654 356 335 368 268 261 316 393 437 454 887
0 0 0 0 0 0 0 0 0 0 0 0 8 2 11 157 612 191 128 281 526 648 475 399 400 312 297 340 323 343 564 629
0 0 0 0 0 0 0 0 0 0 0 0 1 0 2 39 278 495 334 239 278 489 476 481 421 271 212 256 252 346 495 313
0 0 0 0 0 0 0 0 0 0 0 0 0 0 0 1 19 265 473 556 606 319 397 464 448 440 416 298 232 337 377 419
0 0 0 0 0 0 0 0 0 0 0 0 0 0 0 0 0 2 222 301 323 478 457 366 320 421 394 353 353 386 560 529
0 0 0 0 0 0 0 0 0 0 0 0 0 0 0 0 0 0 0 0 112 149 269 279 263 270 291 266 309 317 383 713
0 0 0 0 0 0 0 0 0 0 0 0 0 0 0 0 0 0 0 0 0 12 96 123 119 166 197 246 344 475 575 624
0 0 0 0 0 0 0 0 0 0 0 0 0 0 0 0 0 0 0 0 0 0 7 40 84 258 416 428 418 498 832 679
0 0 0 0 0 0 0 0 0 0 0 0 0 0 0 0 0 0 0 0 0 0 0 1 1 3 94 265 504 409 430 267
0 0 0 0 0 0 0 0 0 0 0 0 0 0 0 0 0 0 0 0 0 0 0 0 0 6 8 38 74 141 330 318
0 0 0 0 0 0 0 0 0 0 0 0 0 0 0 0 0 0 0 0 0 0 0 0 0 0 0 0 23 62 67 128
0 0 0 0 0 0 0 0 0 0 0 0 0 0 0 0 0 0 0 0 0 0 0 0 0 0 0 0 0 0 16 17
0 0 0 0 0 0 0 0 0 0 0 0 0 0 0 0 0 0 0 0 0 0 0 0 0 0 0 0 18 0 0 0
0 0 0 0 0 0 0 0 0 0 0 0 0 0 0 0 0 0 0 0 0 0 0 0 0 0 0 12 29 0 0 0
0 0 0 0 0 0 0 0 0 0 0 0 0 0 0 0 0 0 0 0 0 0 0 0 0 0 0 3 32 1 0 0
0 0 0 0 0 0 0 0 0 0 0 0 0 0 0 0 0 0 0 0 0 0 13 8 25 30 13 17 18 1 0 0
0 0 0 0 0 0 0 0 0 0 0 0 0 0 0 0 0 0 0 0 0 0 0 0 0 6 9 9 10 0 0 0

GFSFLT2_con_mucape_078.txt.gz
CAPE
0 0 0 0 0 0 8 4 11 0 0 0 0 36 87 31 88 312 471 1128 1087 851 744 741 776 792 907 1125 1508 1596 1491 1664
0 0 0 0 0 0 0 1 5 0 0 17 0 4 11 45 79 214 560 882 1112 1147 846 772 814 898 1047 1184 1395 1631 1458 1477
0 0 0 0 0 0 0 0 2 12 18 1 6 0 82 146 79 368 563 641 828 837 1047 861 831 894 968 1146 1287 1543 1529 1463
0 0 0 0 0 0 1 0 0 21 26 7 7 2 135 234 220 196 597 570 532 654 904 1013 950 993 985 980 967 1186 1252 1580
0 0 0 0 0 0 0 0 6 0 12 8 14 11 41 338 442 295 162 310 289 575 347 464 749 989 919 918 877 867 939 901
6 0 0 0 0 0 0 2 22 0 5 9 9 13 12 6 141 287 345 297 172 246 241 263 408 517 591 924 817 759 852 1034
0 0 0 0 0 0 0 0 1 0 2 5 8 3 2 1 0 10 63 132 309 497 337 351 352 173 244 324 390 1112 1012 1012
0 0 0 0 0 0 0 0 0 0 0 4 3 0 0 0 0 0 0 2 83 64 108 138 151 189 284 242 328 556 1085 1131
0 0 0 0 0 0 0 0 0 0 0 0 0 0 0 0 0 0 0 0 0 0 8 21 79 87 188 248 243 508 725 1292
0 0 0 0 0 0 0 0 0 0 0 0 0 0 0 0 0 0 0 0 0 0 0 0 0 82 275 400 408 511 506 579
0 0 0 0 0 0 0 0 0 0 0 0 0 0 0 0 0 0 0 0 0 0 0 0 0 0 19 114 84 183 294 342
0 0 0 0 0 0 0 0 0 0 0 0 0 0 3 0 0 0 0 0 0 0 0 0 0 0 0 0 31 88 59 133
0 0 0 0 0 0 0 0 0 0 0 0 0 0 0 0 0 0 0 0 0 0 0 0 0 0 0 0 0 9 15 13
4 0 0 0 0 0 0 0 0 0 0 0 0 0 0 0 0 0 0 0 0 0 0 0 0 0 0 0 0 0 0 17
0 18 0 0 2 0 0 0 0 0 0 0 0 0 0 0 0 0 0 0 0 0 0 0 0 0 0 0 0 1 5 0
0 0 0 0 0 0 0 0 0 0 0 0 0 0 0 0 0 0 0 1 8 11 8 10 8 7 9 3 1 1 6 9
0 0 0 0 0 0 0 0 0 0 0 0 0 0 3 0 4 7 7 8 0 0 0 0 0 14 24 37 31 6 6 8
0 0 0 0 0 0 0 0 0 0 0 0 3 0 1 0 0 0 0 13 9 0 0 0 0 0 6 10 9 29 39 7
0 0 0 0 0 0 0 0 0 0 3 0 2 9 9 9 0 0 0 0 0 0 0 0 0 0 0 0 0 0 2 34

GFSFLT2_con_mucape_081.txt.gz
CAPE
34 17 9 8 7 1 42 46 31 116 152 139 138 178 49 56 413 741 204 1077 845 791 524 591 621 413 816 1462 1830 2068 1878 2682
0 0 0 0 3 9 6 61 57 135 150 212 74 90 35 41 217 498 1182 809 533 635 802 801 783 529 768 1150 1620 2054 2052 1985
0 0 0 0 0 18 49 57 120 109 296 166 43 14 99 338 294 517 739 753 608 406 840 673 1002 1013 966 1140 1462 1860 2039 2136
0 0 0 0 18 6 24 43 19 26 242 52 32 44 143 303 500 298 280 396 431 448 541 498 549 675 895 1089 1279 1606 1860 2656
0 0 0 0 0 0 23 52 77 44 219 111 88 80 142 295 239 363 358 241 197 244 339 410 564 607 608 698 999 1187 1591 1777
47 0 0 0 0 0 0 18 60 267 202 163 72 122 56 153 240 306 210 164 62 63 58 223 442 555 564 638 690 717 1126 1515
0 0 0 2 0 0 0 0 65 445 252 148 68 35 16 10 53 124 168 181 164 111 80 39 140 341 433 578 676 801 1396 1406
0 0 0 0 0 0 0 0 12 175 119 57 17 4 1 0 0 0 19 47 90 154 105 108 141 115 143 283 305 330 584 703
1 0 0 0 0 0 0 0 0 208 143 16 8 0 0 0 0 0 0 0 0 26 78 59 76 78 204 196 145 204 424 567
7 0 0 0 0 0 0 0 0 17 16 1 2 0 1 0 0 0 0 0 0 0 0 0 7 30 96 135 267 403 592 271
0 0 0 0 0 0 0 0 0 0 0 0 0 0 1 0 0 0 0 0 0 0 0 0 0 0 8 48 330 74 33 308
0 0 0 0 0 0 0 0 0 0 0 0 0 0 1 0 0 0 0 0 0 0 0 0 0 0 0 0 0 0 0 25
0 0 9 0 0 0 0 0 0 0 1 0 0 0 0 0 0 0 0 0 0 0 0 0 0 0 0 0 0 0 0 1
4 16 2 0 0 0 0 0 0 0 0 0 0 0 0 0 0 0 0 0 0 0 0 0 0 0 0 0 0 0 0 0
15 113 11 0 1 0 0 3 0 0 0 0 0 0 0 0 0 0 0 4 1 2 2 1 4 3 1 2 3 1 0 0
0 7 1 0 0 0 0 0 0 0 0 0 0 0 0 0 0 0 3 5 0 5 7 7 12 11 8 7 6 7 13 3
0 5 0 1 0 0 0 0 0 0 0 0 0 0 0 0 5 1 0 0 0 0 0 0 10 8 0 20 21 17 8 4
8 17 10 4 4 0 0 0 0 0 0 0 0 3 2 8 7 5 7 7 8 8 8 1 0 0 0 0 0 0 8 5
27 14 6 6 0 0 0 0 0 0 0 0 1 2 2 6 10 0 0 1 8 10 8 0 0 0 0 0 0 0 0 0

GFSFLT2_con_mucape_084.txt.gz
CAPE
2 0 14 11 0 39 62 35 27 322 223 222 120 201 225 263 644 567 832 945 591 656 594 944 226 570 1005 2047 2455 2597 2409 2724
24 52 63 18 0 8 14 45 87 450 335 273 277 186 105 56 234 322 496 546 405 351 231 989 382 653 1323 2143 2468 2513 2299 2659
44 0 5 5 0 5 3 22 41 362 251 248 147 92 15 2 85 316 521 556 288 182 219 391 614 303 943 2135 2412 2591 2556 2542
3 0 0 0 6 1 19 17 25 310 203 68 83 52 34 45 126 236 332 351 199 76 141 247 110 575 659 462 1597 2150 2350 2714
26 0 0 0 0 0 17 27 145 47 253 158 135 28 38 141 106 66 108 193 251 128 61 169 200 168 357 380 555 947 2135 2565
2 1 0 0 0 0 0 2 49 559 359 224 221 59 75 133 130 126 79 125 110 91 149 173 164 161 95 403 386 540 914 844
0 0 3 0 0 0 0 0 444 523 263 257 164 90 24 24 56 74 94 67 60 18 36 55 64 59 120 131 206 367 464 558
0 0 0 0 0 0 0 0 117 231 320 89 21 19 11 2 0 0 25 68 98 90 95 87 40 0 21 69 72 79 234 377
0 0 0 0 0 0 0 0 485 509 128 30 1 0 3 0 0 0 0 0 0 0 19 43 25 8 11 12 5 14 117 148
1 1 0 0 0 0 0 0 339 486 207 19 1 0 1 0 0 0 0 0 0 0 0 4 24 29 27 15 77 26 44 143
0 0 5 0 0 0 0 1 135 328 136 15 0 0 0 0 0 0 0 0 0 0 0 0 0 0 17 48 50 67 74 120
15 0 0 22 0 0 0 28 8 22 70 17 0 0 0 0 0 0 0 0 0 0 0 0 0 0 0 0 0 0 0 0
29 0 44 1 0 0 0 73 9 8 1 1 2 0 0 0 0 0 0 0 0 0 0 0 0 0 0 0 0 0 0 0
4 41 17 0 0 0 43 5 0 0 2 7 0 0 0 0 0 0 0 0 0 0 0 0 0 0 0 6 9 12 13 4
110 178 13 6 8 4 0 8 1 0 0 0 0 0 0 0 0 0 0 0 0 0 0 0 0 0 0 6 11 14 7 5
14 97 14 6 0 0 0 0 0 0 0 0 0 0 0 0 0 2 4 0 0 0 0 3 1 3 0 3 17 10 15 16
0 5 1 0 0 0 0 0 0 0 0 0 0 0 0 0 2 1 3 5 3 0 0 0 0 0 0 2 9 0 0 2
26 21 30 24 23 8 0 0 0 0 0 0 0 1 0 1 0 3 4 0 0 0 0 1 0 0 0 0 0 0 0 0
47 25 15 0 0 1 1 0 0 0 0 0 0 0 0 3 3 0 1 0 1 0 5 11 12 0 0 0 0 0 0 0

GFSFLT2_con_mucape_087.txt.gz
CAPE
0 0 0 0 0 0 4 21 21 388 185 156 119 190 245 269 176 14 2 2 56 112 160 339 123 323 570 917 1164 902 1410 1058
0 2 0 0 0 17 4 1 32 443 302 358 198 184 506 498 191 84 62 239 35 73 96 227 70 401 771 1078 1185 1277 1481 1356
6 0 0 0 0 0 0 30 6 206 204 311 165 185 244 333 557 355 844 497 238 145 104 214 131 177 776 1199 1509 1665 1482 1568
9 11 12 10 0 0 0 8 16 237 180 209 118 22 34 177 257 660 947 518 291 206 247 171 69 171 242 226 795 1325 1689 1828
21 12 16 10 7 1 0 28 10 78 206 147 119 12 149 60 101 406 446 497 430 377 175 116 20 203 151 155 262 637 1134 1716
25 0 0 22 18 0 0 6 194 482 222 154 67 9 48 108 268 271 163 182 167 156 76 62 37 85 63 137 72 232 589 840
8 3 0 0 0 13 27 370 454 371 198 202 67 34 134 191 167 125 103 208 178 179 128 91 46 96 78 55 107 48 198 627
40 1 0 0 0 0 24 294 365 371 298 153 7 112 19 2 189 172 92 128 135 99 70 102 92 88 58 75 42 112 152 89
4 11 3 0 2 19 179 573 499 363 312 264 52 0 4 0 13 65 105 113 104 97 66 20 18 2 0 0 21 34 18 32
0 26 22 0 0 0 5 699 290 307 280 122 6 13 0 0 0 0 3 2 0 29 87 96 83 71 27 0 0 0 1 28
0 0 0 1 0 0 289 673 384 240 163 73 17 1 3 0 0 0 0 0 0 0 0 17 46 38 34 33 18 20 37 48
0 1 0 0 0 0 36 445 371 239 120 32 18 5 0 0 0 0 0 0 0 0 0 0 0 0 0 8 15 37 40 9
0 0 2 0 0 0 0 33 355 225 156 54 0 2 0 0 0 0 0 0 0 0 0 0 0 0 0 0 0 0 0 0
0 0 0 0 0 6 70 24 37 62 31 0 0 0 0 0 0 0 0 0 0 0 0 0 0 0 0 0 0 0 0 0
131 9 0 0 0 1 7 40 24 40 30 4 0 0 0 0 0 0 0 0 0 0 0 0 0 0 0 0 0 0 0 0
88 82 1 0 0 0 15 29 17 13 14 9 0 0 0 0 0 0 0 0 0 0 0 0 0 0 0 0 0 0 0 0
4 16 0 0 0 0 0 0 0 0 0 0 0 0 0 0 0 0 0 0 0 0 0 0 0 0 0 0 0 0 0 0
0 34 28 36 0 0 0 0 0 0 0 0 0 0 0 0 0 0 0 0 0 0 0 0 0 0 0 0 0 0 0 0
32 15 4 2 1 16 0 0 0 0 0 0 0 0 0 0 0 0 0 0 0 0 0 0 0 0 0 0 0 0 0 0

GFSFLT2_con_mucape_093.txt.gz
CAPE
0 0 0 0 0 0 0 0 1 16 24 80 275 247 319 293 190 103 74 54 59 97 164 162 170 517 299 259 207 123 102 335
0 0 0 0 0 0 0 0 0 4 21 52 219 333 328 372 276 156 94 76 66 78 124 136 144 236 636 393 213 181 148 205
0 0 0 0 0 0 0 0 0 0 0 192 125 393 344 193 242 259 178 76 81 72 81 65 104 171 296 607 619 419 354 343
0 0 0 0 0 0 0 0 0 0 10 115 110 182 264 258 249 129 85 72 130 101 45 25 80 123 305 402 424 448 510 617
0 1 0 0 0 0 0 0 111 71 0 121 180 197 185 180 159 215 234 210 143 91 74 96 122 148 148 96 149 126 237 376
0 0 4 2 0 0 0 0 0 0 78 233 250 277 326 208 220 211 167 171 247 189 134 86 126 167 117 117 128 97 90 124
19 21 11 45 0 0 0 0 17 30 65 113 130 197 55 31 97 209 145 135 182 214 258 198 150 91 130 148 128 91 102 64
22 48 37 61 50 0 32 143 107 53 48 88 68 50 29 4 36 30 142 212 280 290 506 712 168 86 82 158 81 60 86 78
31 52 65 47 77 81 182 334 135 69 70 92 52 151 150 82 19 42 96 205 155 308 236 246 120 203 172 94 70 54 44 45
42 33 38 35 160 167 540 362 287 130 120 103 55 64 39 31 28 19 317 349 306 161 225 181 256 179 234 262 204 85 89 72
14 29 2 39 67 83 77 266 369 189 142 126 83 50 42 95 147 75 54 121 170 184 154 112 149 130 91 66 87 84 73 79
0 25 6 1 1 37 69 290 244 258 236 114 71 22 2 80 174 115 123 117 174 128 71 67 48 54 74 47 23 2 1 2
1 30 0 0 0 6 17 4 320 315 214 170 100 2 0 0 62 88 65 41 43 57 37 18 15 16 11 14 21 26 48 56
0 0 1 0 0 0 0 130 213 221 218 150 131 65 25 0 0 0 0 0 0 0 0 0 0 0 0 0 0 0 0 0
5 3 2 7 0 0 46 112 176 274 260 211 122 74 10 22 22 0 0 0 0 0 0 0 0 0 0 0 0 0 0 0
0 0 0 12 16 99 181 127 217 233 213 172 139 108 53 34 23 16 2 0 0 0 0 0 0 0 0 0 0 0 0 0
7 12 15 3 0 10 46 84 100 88 126 116 80 46 35 32 23 3 0 0 0 0 0 0 0 0 0 0 0 0 0 0
17 46 48 6 2 3 1 0 0 1 1 6 19 21 24 10 1 0 0 0 0 0 0 0 0 0 0 0 0 0 0 0
0 28 21 1 0 0 0 0 0 0 0 0 0 0 0 0 0 0 0 0 0 0 0 0 0 0 0 0 0 0 0 0

GFSFLT2_con_mucape_096.txt.gz
CAPE
0 0 0 0 0 0 3 0 20 0 0 22 249 129 266 207 123 78 45 92 99 112 87 101 107 263 157 138 48 29 146 261
0 0 0 0 0 0 0 0 0 0 2 0 269 303 312 285 202 135 93 58 52 59 8 44 80 233 213 187 169 141 157 165
0 0 0 0 0 0 0 0 0 0 0 113 205 325 424 336 296 212 161 102 57 115 94 88 92 164 441 277 196 203 189 104
0 0 0 0 0 0 0 0 0 0 0 184 178 455 368 340 314 259 192 164 136 93 114 73 30 155 214 403 328 219 211 178
0 0 0 0 0 0 0 0 5 0 0 134 429 470 362 309 272 212 242 195 166 140 95 82 53 82 134 170 152 140 195 323
0 0 0 0 0 0 0 0 0 5 0 97 505 500 555 216 597 367 231 146 155 99 83 109 90 108 90 76 64 57 47 116
0 2 0 0 0 0 0 0 0 0 1 27 292 589 459 659 318 412 613 631 263 175 78 87 130 146 158 139 130 80 91 60
0 9 26 9 36 8 1 21 96 14 45 90 481 448 349 201 298 311 340 465 548 374 253 224 335 181 178 144 125 111 112 78
0 0 22 25 14 35 18 91 128 92 69 214 294 331 316 148 85 149 227 169 173 354 398 359 280 222 138 110 94 69 25 43
17 3 8 2 0 73 235 259 185 136 127 196 207 292 182 192 57 59 117 209 262 465 357 209 166 173 119 94 118 36 24 12
4 8 8 0 0 68 74 148 328 216 143 124 186 165 148 79 57 121 195 220 453 285 189 260 328 201 213 293 127 91 29 47
9 3 1 0 0 47 40 91 194 243 248 246 194 123 51 53 35 75 100 409 377 256 171 134 172 96 89 37 52 27 42 17
26 13 1 1 6 4 68 24 205 225 258 193 148 119 28 32 122 166 230 227 168 200 72 28 37 47 36 15 4 1 1 0
0 0 0 0 1 13 8 26 207 193 185 204 109 6 38 80 167 96 63 31 29 22 5 0 0 0 0 0 0 0 1 2
3 1 2 13 32 0 0 52 62 211 182 141 90 23 4 68 1 0 0 0 0 0 0 0 0 0 0 0 0 0 0 0
10 8 12 24 39 41 60 53 141 163 180 178 136 44 0 0 1 0 0 0 0 0 0 0 0 0 0 0 0 0 0 0
0 0 0 0 1 23 53 116 120 119 152 196 120 33 30 0 0 16 10 13 0 0 0 0 0 0 0 0 0 0 0 0
0 0 0 0 0 0 0 20 74 88 55 45 35 38 34 28 24 15 19 18 0 0 0 0 0 0 0 0 0 0 0 0
0 0 0 0 0 0 0 0 0 0 6 37 40 34 47 22 17 15 0 0 0 0 0 0 0 0 0 0 0 0 0 0

GFSFLT2_con_mucape_102.txt.gz
CAPE
0 0 0 0 11 3 23 56 59 160 83 262 244 415 367 287 239 468 280 292 353 513 800 825 878 1076 999 1020 1321 1323 1109 1383
0 0 0 0 0 13 40 61 63 157 119 176 548 564 556 316 456 494 313 158 293 479 740 614 746 1023 889 1102 1303 1092 961 1065
0 0 0 0 0 0 4 12 21 79 72 503 563 767 803 574 625 665 535 471 313 401 742 917 985 829 508 1101 1240 1130 935 815
0 0 0 2 0 0 0 0 2 44 194 638 857 978 996 1030 727 640 475 623 688 448 480 834 858 587 545 812 776 1063 927 1074
45 28 0 0 0 0 1 5 11 3 0 626 883 1092 997 1143 1279 1177 893 781 840 920 680 700 341 181 192 457 1041 804 1176 1000
81 92 56 10 0 0 0 1 0 3 1 632 675 987 1100 928 875 1027 984 899 961 1028 957 1044 697 377 178 179 421 590 891 1010
48 14 5 53 41 0 0 0 6 7 1 6 665 975 1135 860 714 781 745 744 830 812 865 975 1025 678 403 145 61 90 231 258
82 64 64 38 4 0 0 0 0 2 20 341 798 975 995 824 924 711 832 781 905 853 870 914 954 887 643 540 324 229 68 38
102 129 110 88 63 15 17 38 29 17 137 624 1011 963 916 867 764 778 638 666 878 1028 972 1000 1150 990 913 586 373 295 75 40
181 181 117 172 70 51 28 88 483 441 547 747 946 782 781 702 644 691 616 519 423 388 335 305 314 482 454 397 409 380 263 136
195 217 160 62 49 28 32 222 566 779 647 592 712 452 424 537 720 774 689 793 813 647 410 335 305 322 321 326 281 349 181 101
218 133 135 150 0 0 1 225 328 574 547 459 419 503 330 547 503 476 852 514 559 609 354 390 511 559 515 379 330 630 269 143
126 126 208 158 27 20 139 169 241 429 480 324 364 368 324 316 256 318 472 558 549 250 453 335 263 467 495 348 441 361 184 116
280 192 160 282 245 271 280 105 209 299 311 413 187 143 149 167 165 255 355 412 323 503 362 437 283 466 323 235 269 228 199 113
415 474 382 367 368 391 348 205 318 366 160 96 105 69 98 234 278 384 390 461 410 310 244 279 224 303 387 347 240 187 91 39
442 303 214 160 204 510 510 370 387 271 154 145 72 97 220 442 297 277 240 242 77 96 158 83 64 45 32 27 10 15 19 15
418 210 135 99 115 331 572 545 365 242 130 156 116 120 210 182 149 208 162 111 83 99 102 88 0 0 0 0 0 0 0 0
434 424 435 167 26 114 383 459 385 217 99 36 14 3 0 38 37 54 60 7 0 0 0 0 0 0 0 0 0 0 0 0
424 205 216 38 0 1 88 199 268 267 170 69 20 0 0 0 0 0 0 4 15 8 7 0 0 0 0 0 0 0 0 0

GFSFLT2_con_mucape_105.txt.gz
CAPE
0 0 22 16 79 112 196 12 74 148 307 303 450 349 402 632 626 238 298 64 173 265 605 639 696 766 1054 1252 1433 1372 1293 1536
0 0 0 2 32 50 37 34 109 79 208 310 345 415 403 507 692 747 493 227 253 276 366 425 675 782 1084 1125 1213 1169 999 1030
0 0 0 0 0 2 52 35 51 94 213 422 621 646 755 700 544 787 497 358 249 444 335 644 852 789 970 935 1615 1172 1055 950
32 3 0 2 0 0 13 27 22 52 443 683 632 595 721 645 579 879 665 475 242 289 579 1369 1304 1268 1254 1698 1262 1299 1194 1295
70 31 2 0 4 3 0 14 63 47 371 793 940 1068 1030 889 907 1066 1088 618 356 295 781 1427 1857 1667 1393 1419 1168 1229 1370 1305
36 27 0 27 0 6 13 51 32 50 231 776 743 1080 1359 1464 1369 1205 1019 1012 1038 869 696 744 774 824 1031 1093 877 1058 758 1249
34 7 10 11 20 5 4 3 57 67 66 79 739 911 1389 1563 1453 1713 1489 1093 1068 1230 1447 1530 1249 1062 789 398 387 311 412 884
97 15 17 19 42 31 40 15 11 10 33 214 1057 1213 1568 1391 1124 1140 1110 1211 1318 1295 1278 1465 1460 1288 1141 779 637 387 364 515
113 47 66 34 41 53 32 29 44 67 38 744 712 984 1302 1292 1043 954 1293 1085 1240 1078 1134 1204 1330 1303 1165 859 540 619 291 280
194 74 96 134 102 118 56 90 88 212 102 690 812 1263 1178 1160 982 1164 887 1067 1115 964 876 924 1278 1472 1339 1184 1007 687 674 365
263 115 48 59 154 148 86 277 574 480 426 564 1230 1200 770 781 793 848 766 469 505 714 793 726 850 691 986 919 770 700 570 528
344 287 169 196 45 24 74 147 192 161 776 874 879 918 905 524 779 596 579 488 516 487 400 314 316 444 352 368 343 300 389 181
225 202 217 98 24 2 139 317 210 501 632 589 751 621 810 481 301 429 567 601 493 653 622 361 431 434 443 319 473 454 380 313
345 207 114 231 269 393 418 327 278 499 431 352 328 378 422 468 356 269 350 343 273 394 281 509 360 401 554 448 573 447 347 308
226 419 505 466 502 567 434 350 384 520 320 296 219 246 119 136 247 303 367 282 419 401 392 358 373 253 334 478 436 390 379 200
381 404 384 377 584 747 725 528 478 537 191 148 161 269 312 371 338 386 502 499 502 420 191 283 431 421 250 323 267 290 286 215
407 221 322 227 373 631 829 690 537 419 241 94 120 141 230 503 423 430 365 382 289 385 346 272 304 156 73 33 86 63 94 14
609 824 646 401 225 372 510 714 502 318 151 5 92 91 191 279 158 207 233 181 203 193 164 8 28 27 13 9 9 1 4 0
723 549 614 326 124 73 198 339 593 521 191 2 0 0 0 2 4 8 29 50 0 1 1 0 0 0 0 0 0 0 0 0

GFSFLT2_con_mucape_108.txt.gz
CAPE
0 0 31 7 38 60 65 3 37 107 64 179 170 162 188 193 96 22 57 0 95 158 148 148 826 547 445 1970 2199 2009 1889 2180
0 0 0 12 11 23 11 113 126 32 13 154 471 478 773 454 240 153 28 43 262 174 91 116 481 533 253 1052 1835 1877 1768 1849
6 0 0 0 0 0 7 13 15 21 39 268 310 597 564 973 436 249 99 66 451 393 382 64 81 176 590 1425 1787 1614 1627 1608
27 5 0 0 0 2 0 1 2 11 222 366 231 200 351 464 666 347 308 534 382 432 691 362 322 801 401 1255 1474 1321 1034 1791
34 26 3 0 0 1 0 0 26 12 352 300 39 277 820 613 1046 1360 1165 1078 642 538 211 108 81 12 489 1019 949 1370 1214 1444
30 21 39 41 0 1 16 2 0 0 747 719 740 633 667 931 1243 1372 1389 1110 842 656 445 150 0 4 176 1146 1133 940 961 1603
0 14 23 14 6 14 0 1 22 47 116 724 679 678 623 1212 1489 1590 1460 1197 1051 747 859 1490 452 491 874 821 800 1067 1065 1157
28 3 7 5 0 26 25 4 0 14 16 414 872 992 1029 1407 1821 1642 1225 1050 1348 1488 1230 1300 1277 934 690 711 741 591 421 467
29 19 4 0 5 7 62 34 15 21 372 117 548 715 546 929 1228 1506 1430 1477 1644 1278 1284 1611 1532 1637 1248 1381 1251 950 610 648
126 96 80 105 113 95 22 47 239 478 474 287 587 184 0 579 1014 1078 1200 942 889 1115 1201 1236 1378 1212 1123 1376 1150 964 809 732
109 89 86 175 127 82 7 284 303 273 133 59 246 310 439 715 1122 831 995 828 996 771 681 824 760 847 1135 1260 1164 1085 960 561
427 118 229 213 106 29 13 173 351 385 408 42 287 225 371 527 631 622 576 1037 1003 710 645 746 771 723 635 577 549 419 498 409
238 238 384 145 67 0 14 324 236 255 398 628 657 284 443 508 337 351 329 351 727 450 274 323 641 662 644 459 565 410 367 307
264 138 133 28 309 137 337 405 219 341 320 471 563 201 364 336 506 222 271 264 336 560 350 371 195 400 442 293 448 349 331 368
112 254 249 384 500 439 273 376 498 430 497 330 302 183 93 205 121 168 220 498 444 217 121 194 323 238 347 518 477 347 522 543
552 168 69 332 486 650 669 657 636 496 130 131 120 314 265 169 200 369 304 378 298 323 133 241 460 382 280 333 402 381 442 435
337 481 472 312 541 634 782 656 667 379 192 105 0 26 102 208 535 297 391 529 344 297 254 138 137 305 236 283 108 278 276 281
518 425 903 499 303 374 886 770 583 353 109 5 0 0 94 135 235 216 298 328 240 141 202 312 259 107 108 83 64 95 183 154
783 585 491 443 139 132 222 953 685 439 238 21 4 0 1 60 12 9 127 81 201 61 113 31 47 107 17 3 0 1 43 90

GFSFLT2_con_mucape_111.txt.gz
CAPE
0 0 2 12 133 65 39 7 0 62 15 227 83 88 66 10 0 0 14 77 69 58 111 103 96 618 966 833 608 981 894 1018
0 0 17 44 23 4 20 78 27 56 22 166 121 57 61 69 3 9 1 30 35 68 71 188 145 549 1187 1040 672 662 1123 965
4 0 0 21 6 0 0 0 13 130 31 79 18 89 111 77 65 12 6 0 7 65 107 232 265 445 950 1172 1231 957 1181 822
0 7 0 19 0 0 0 0 0 9 41 12 9 110 56 114 152 45 65 56 44 75 94 151 244 285 666 595 879 1106 986 826
10 20 20 2 0 0 0 0 0 0 14 116 127 30 70 54 180 251 91 111 166 323 93 141 169 182 259 507 814 983 800 1004
6 1 1 5 9 12 0 0 0 3 344 180 57 30 43 20 427 466 332 205 281 326 194 179 149 89 53 385 500 636 937 974
3 4 4 0 3 3 5 0 0 202 475 223 74 266 178 343 594 528 368 345 335 293 278 245 159 114 48 1 114 368 525 663
7 5 1 6 16 0 0 12 3 469 329 207 9 166 350 733 763 873 750 598 614 519 267 187 212 212 71 15 1 453 346 378
7 32 5 4 14 16 32 357 369 727 502 459 153 22 43 75 107 32 646 823 964 1063 867 699 228 141 223 158 312 321 295 232
111 20 38 142 8 3 283 414 223 340 459 175 44 12 52 216 279 316 548 645 680 781 848 935 945 501 541 372 368 303 289 399
97 26 124 182 58 2 141 211 217 391 25 304 150 21 1 1 38 178 331 364 496 730 686 567 638 839 655 562 547 395 399 470
178 207 165 184 76 26 6 186 377 422 405 445 318 372 219 122 350 328 238 235 536 683 694 335 294 416 622 729 624 577 385 356
85 56 133 43 55 94 4 161 437 282 408 140 236 233 136 114 247 79 90 114 144 389 326 380 581 552 550 458 422 323 425 383
63 90 3 22 188 211 135 189 352 436 431 189 150 128 320 266 172 94 30 41 76 159 259 368 348 564 478 766 691 586 462 410
170 196 85 55 56 45 256 545 446 280 271 192 21 50 25 50 39 50 39 97 219 185 381 343 446 384 342 393 194 297 335 214
265 144 199 49 251 382 543 474 201 192 157 63 0 3 8 22 74 36 58 175 89 104 130 59 113 256 73 207 359 418 404 253
213 49 39 260 518 683 791 449 222 99 58 0 0 0 1 0 21 66 92 157 50 192 178 135 218 186 303 217 106 318 371 161
405 126 350 357 460 778 659 521 214 18 0 0 0 0 3 3 6 67 107 59 202 170 139 66 160 119 7 14 96 167 134 95
511 521 208 183 169 789 656 483 191 11 0 0 0 0 0 0 0 46 46 41 47 47 78 39 92 80 66 74 63 76 57 163

GFSFLT2_con_mucape_114.txt.gz
CAPE
312 428 514 373 227 81 48 18 0 89 31 56 31 42 24 2 37 42 28 46 41 37 85 73 101 317 308 297 197 238 197 314
11 97 357 154 135 52 33 2 0 70 76 70 47 47 11 14 39 18 14 90 103 80 64 87 100 295 512 351 300 279 210 368
0 0 0 0 0 4 2 14 3 0 21 55 36 96 136 89 68 2 15 111 110 91 119 73 128 323 557 519 340 441 445 618
0 0 5 11 1 36 8 0 0 1 0 40 45 33 201 153 173 142 37 21 62 106 125 125 275 565 668 663 439 308 715 655
17 20 11 3 1 17 10 0 0 0 0 131 27 77 16 4 145 210 140 3 5 58 123 143 204 471 700 704 568 514 491 730
5 1 2 14 0 0 3 0 0 0 19 188 170 166 271 375 34 83 101 139 32 17 69 133 197 231 490 620 544 604 573 710
2 0 3 10 0 10 33 25 0 5 219 115 307 275 275 436 330 204 165 188 144 100 86 101 111 185 319 517 396 275 363 455
0 0 4 2 27 317 278 336 565 455 342 119 162 113 164 149 147 91 132 239 277 262 187 129 117 203 235 312 374 244 219 236
1 2 7 41 332 341 273 462 510 214 171 162 15 69 164 50 46 94 72 60 234 252 262 223 179 128 117 57 51 53 97 197
27 14 3 35 292 287 298 237 270 287 52 34 65 137 112 91 36 11 2 82 207 241 235 248 186 149 116 79 52 175 141 166
56 44 114 119 37 67 102 251 415 375 287 95 45 65 1 1 90 134 237 219 188 261 350 618 203 187 151 113 185 214 156 175
44 56 33 51 48 31 22 121 312 224 158 237 202 155 57 67 29 60 184 147 271 338 349 291 399 432 220 281 301 206 206 213
112 21 47 79 57 51 12 6 338 222 105 44 161 24 0 20 123 100 76 151 200 146 261 292 501 319 217 304 267 260 167 289
6 15 2 13 59 101 134 248 493 281 53 36 146 179 159 70 43 50 30 57 113 152 142 172 231 365 365 330 444 318 162 309
0 14 5 0 4 227 514 427 284 188 147 31 11 0 0 0 0 0 0 11 81 100 71 90 132 238 303 432 321 399 406 447
139 32 65 48 252 430 448 213 97 119 39 1 0 0 0 0 0 0 0 0 12 12 35 77 41 111 159 225 267 202 236 317
120 175 146 186 510 482 221 101 96 64 0 0 0 0 0 0 0 1 3 0 22 1 3 5 11 26 42 104 36 151 219 233
132 184 49 312 517 441 170 46 4 0 0 0 0 0 0 5 4 5 15 19 11 5 28 10 1 2 26 38 30 86 86 47
229 91 211 434 621 555 239 52 1 0 0 0 0 0 0 0 0 6 4 0 3 4 19 22 17 15 6 12 9 2 4 11

GFSFLT2_con_mucape_117.txt.gz
CAPE
573 546 321 340 122 29 0 24 0 60 61 31 19 26 48 43 21 44 53 6 26 56 81 97 95 95 82 28 68 207 125 239
550 605 366 314 182 94 71 0 0 10 30 64 62 17 51 59 55 10 19 33 34 55 84 106 109 201 137 84 0 96 143 199
13 289 416 184 163 73 52 49 0 0 19 32 45 40 27 44 19 22 23 57 38 70 102 113 139 202 223 202 112 116 125 153
63 1 3 169 7 0 1 0 0 0 0 52 90 88 98 57 25 15 33 87 99 81 92 85 118 158 255 321 211 205 193 151
38 86 26 12 0 0 0 0 0 0 0 161 237 272 249 81 61 66 28 48 53 62 83 136 118 169 236 431 293 267 316 313
27 60 40 12 2 0 0 0 0 0 115 240 239 249 199 147 155 178 100 48 48 44 94 138 203 304 342 472 457 363 362 490
36 9 30 8 226 221 139 88 0 101 306 296 282 175 221 223 281 273 236 188 139 66 78 173 240 336 540 606 561 495 423 441
0 9 1 344 239 165 226 412 424 337 224 176 294 264 164 151 113 32 53 143 264 170 153 177 218 246 388 526 522 584 539 472
0 7 5 0 190 225 277 329 218 186 191 459 302 277 121 155 144 89 93 156 199 173 160 116 148 193 226 422 493 487 488 347
0 24 0 1 251 279 251 189 208 91 245 434 107 63 186 21 7 9 41 20 23 45 101 124 144 108 126 151 269 380 373 171
5 29 28 120 44 14 60 220 348 260 125 139 31 80 4 67 113 92 78 57 36 79 172 243 186 137 105 104 103 130 85 125
22 26 39 56 33 32 145 233 271 206 247 305 209 35 32 12 44 56 77 106 110 136 192 232 202 201 178 85 183 133 120 137
6 17 15 88 78 33 38 57 367 229 54 8 98 78 10 33 54 35 7 49 80 84 122 138 286 381 256 61 200 21 192 204
10 33 23 56 51 69 10 238 512 268 30 0 6 44 69 81 52 6 2 16 157 101 109 280 421 454 262 61 33 109 272 206
1 0 19 3 8 118 226 388 562 240 55 69 42 3 5 1 1 0 2 10 91 60 114 90 138 318 511 435 378 362 210 57
82 32 66 92 170 451 478 359 302 170 107 24 0 0 0 0 0 0 0 3 4 19 7 41 49 186 251 349 378 359 254 276
55 74 14 144 133 428 347 139 192 86 2 0 0 0 1 0 1 0 0 5 6 4 6 5 6 13 9 95 61 42 171 88
111 125 43 55 492 342 84 42 17 0 0 0 0 0 0 0 1 4 4 10 2 1 2 6 5 1 2 28 36 68 111 40
252 133 82 367 531 264 17 0 0 0 0 0 0 0 0 0 0 3 10 13 15 5 5 20 4 0 3 0 0 0 6 3

GFSFLT2_con_mucape_120.txt.gz
CAPE
576 605 486 319 134 51 1 0 4 0 48 24 28 49 36 44 41 30 45 31 18 0 0 22 0 48 31 0 4 63 211 246
513 600 399 323 100 46 59 2 5 0 0 0 7 6 19 15 12 4 6 5 26 36 15 25 42 64 50 42 43 40 98 172
326 448 406 321 301 136 45 33 3 0 0 39 51 11 6 13 13 3 27 63 40 40 46 39 67 87 67 62 52 39 77 104
42 43 19 412 128 66 35 2 6 0 0 121 238 158 56 71 0 1 23 73 88 76 89 82 94 110 154 111 77 87 56 100
63 40 41 45 29 6 0 0 0 0 0 193 188 140 165 51 15 0 14 64 100 102 94 114 140 170 206 209 179 113 96 111
44 45 15 0 43 0 0 0 0 0 180 321 316 207 143 131 102 41 34 39 140 123 122 128 155 143 201 244 299 227 214 202
61 33 21 13 258 404 249 68 0 68 217 186 211 244 337 275 229 161 94 102 56 65 79 109 148 137 167 221 402 307 271 299
0 11 194 369 233 195 457 439 508 420 299 260 152 110 122 122 94 184 226 170 182 94 155 158 210 236 373 540 559 437 282 328
0 15 44 1 58 223 189 242 224 230 271 332 146 84 85 83 114 172 304 290 249 121 118 181 165 248 245 296 383 375 437 393
2 0 0 0 257 341 311 273 125 288 316 149 469 170 92 39 64 24 83 134 201 192 195 172 185 157 125 157 156 206 248 321
0 0 0 214 278 258 253 266 347 251 402 174 150 158 107 97 124 114 123 92 155 76 117 191 166 151 143 147 101 90 167 186
1 0 36 72 274 223 109 185 313 367 244 279 314 91 41 76 111 132 88 125 152 160 125 165 167 125 174 203 124 102 64 26
6 0 0 42 109 94 148 15 311 164 24 37 108 43 43 56 78 70 43 55 35 49 53 136 246 337 237 157 67 126 30 47
24 7 0 89 66 70 55 247 427 237 15 10 0 0 4 16 46 33 30 23 97 85 108 164 271 389 385 232 29 6 3 106
0 0 19 6 41 45 190 511 556 181 22 0 0 13 3 0 3 1 1 28 71 79 114 120 146 204 257 314 219 227 134 187
65 11 87 62 26 319 327 542 456 105 64 16 0 0 0 0 1 1 0 4 5 8 12 37 13 29 263 262 262 251 215 141
115 54 109 101 205 462 387 237 178 118 8 0 0 0 0 0 0 0 0 1 2 5 7 6 13 7 8 108 180 124 154 177
108 63 92 62 132 501 230 198 143 15 0 0 0 0 0 0 0 0 0 5 11 6 5 4 7 2 3 12 73 50 53 82
235 219 154 95 660 403 123 65 3 0 0 0 0 0 0 0 0 0 5 9 1 5 5 7 15 2 0 0 3 28 46 62

GFSFLT2_con_mucape_123.txt.gz
CAPE
722 743 577 415 168 85 94 35 28 41 120 62 29 28 5 1 18 49 85 39 24 93 184 256 277 331 312 316 377 369 529 940
852 767 494 560 330 272 150 73 5 0 55 134 155 152 51 64 43 69 77 35 33 46 149 192 248 310 327 351 355 330 437 771
746 839 757 518 496 130 59 47 41 6 3 192 217 180 99 52 109 157 102 135 107 44 132 230 199 238 265 372 364 316 378 538
59 86 167 338 308 315 197 8 33 0 1 228 239 196 189 112 95 86 136 171 113 80 138 234 257 261 246 363 404 364 412 507
189 86 148 201 215 111 63 18 11 0 0 345 290 264 262 261 220 131 137 120 104 99 115 194 239 257 363 446 428 429 455 482
131 162 32 93 227 90 31 0 1 2 88 522 387 296 212 212 250 199 204 117 97 142 213 263 393 441 559 609 230 648 516 501
16 30 32 555 604 715 356 334 0 9 332 528 363 324 234 290 252 211 325 247 238 317 287 327 480 520 461 575 380 387 779 472
0 36 41 464 340 333 695 577 446 473 432 352 362 393 295 220 258 235 136 111 313 282 244 266 434 591 551 332 339 761 339 634
2 0 67 141 207 161 548 666 644 560 593 520 272 244 162 115 94 123 211 284 213 166 204 400 314 328 786 885 897 662 920 831
1 31 27 90 302 531 522 556 410 402 681 361 342 190 187 127 90 113 369 291 238 236 147 135 169 190 217 314 531 363 507 292
23 12 0 136 426 731 569 602 671 479 457 525 253 139 303 235 163 178 202 153 259 294 280 211 151 148 142 213 287 203 186 166
124 139 2 125 151 341 289 369 759 669 534 316 228 359 153 216 208 169 218 187 247 200 172 244 190 125 191 215 224 171 232 108
195 190 142 23 146 278 344 231 777 781 687 630 417 295 52 97 106 79 84 153 68 294 167 211 315 287 236 296 292 159 196 109
209 296 96 242 218 424 340 339 608 435 214 171 22 4 43 112 78 66 43 73 210 258 104 116 326 434 356 309 172 121 29 31
260 249 127 233 275 194 216 572 701 345 61 17 10 0 60 22 2 12 17 33 33 89 69 66 161 277 249 335 217 163 80 148
420 325 87 310 266 305 525 891 576 237 60 43 15 1 0 0 1 1 5 2 0 0 24 38 16 56 107 192 246 195 267 247
553 427 224 407 383 680 745 557 351 180 104 38 2 0 0 0 0 0 0 0 1 6 2 5 3 0 0 55 132 210 87 169
427 711 702 538 535 913 699 493 280 133 0 0 0 2 0 0 0 0 0 0 2 5 8 7 11 3 0 2 10 22 47 74
619 348 470 445 743 953 742 481 162 0 0 0 0 0 0 0 0 0 0 0 0 1 1 0 4 2 0 0 0 7 5 16

GFSFLT2_con_mucape_129.txt.gz
CAPE
5 0 0 78 145 165 55 119 120 21 367 386 264 226 161 86 82 370 340 170 150 123 180 373 457 640 855 1177 1735 1649 1201 1241
36 122 147 83 236 158 12 19 128 274 67 44 338 644 390 254 175 171 310 405 247 140 186 309 452 591 858 1057 1488 1576 1109 964
93 336 289 190 202 148 161 366 274 237 57 29 743 740 329 158 124 231 360 518 376 151 200 337 405 598 755 990 1271 1465 1091 759
99 49 58 12 71 183 379 147 31 15 101 445 802 841 527 121 39 109 18 582 412 254 221 370 581 720 763 906 1124 1265 1167 991
110 78 187 77 148 48 29 152 111 98 160 409 704 861 741 434 55 20 79 186 366 578 581 492 644 1180 791 955 973 1133 1295 1081
53 10 144 312 201 65 51 270 0 13 32 684 724 822 1014 733 373 112 383 418 465 778 854 593 869 995 1392 1062 1389 1113 1309 1263
94 39 71 54 7 30 223 184 49 92 80 874 932 757 546 362 589 586 522 468 1082 677 715 420 723 1412 1491 1570 1375 1487 1553 1515
58 52 50 27 40 140 145 187 98 44 3 763 996 587 353 311 287 210 173 249 383 385 608 449 413 646 1465 1549 1449 1746 1696 933
126 76 85 92 58 65 238 189 271 256 775 978 938 521 456 247 277 277 169 167 185 238 116 191 349 462 736 1527 1480 1059 1665 1429
58 78 102 117 183 183 178 193 182 366 279 827 1165 489 336 236 193 222 247 245 175 114 120 96 147 267 463 513 1434 1748 1432 1411
61 96 61 34 80 87 76 102 3 185 224 1030 780 397 219 187 109 101 100 149 218 199 150 102 104 152 483 796 930 1326 1332 1565
79 53 73 95 266 182 92 23 25 233 347 806 824 1027 457 162 157 119 132 108 149 152 159 186 174 132 492 1054 692 834 1013 887
132 95 79 329 297 227 50 419 658 237 607 881 855 873 458 266 180 142 151 117 137 149 156 202 303 441 539 427 346 493 809 651
106 108 108 300 229 34 906 767 848 810 1356 945 983 514 372 318 298 224 184 156 109 119 120 226 455 536 320 292 286 222 245 203
158 395 512 392 271 287 471 578 773 1248 1316 1389 964 549 443 382 250 210 139 72 65 61 93 166 219 335 429 444 339 217 177 155
139 94 185 253 273 326 438 618 816 1170 1093 836 682 574 376 276 85 54 86 18 78 56 30 114 154 198 232 266 316 263 240 152
283 135 226 489 462 288 642 871 1133 1228 1112 941 805 552 382 245 148 28 18 4 1 36 27 45 42 68 120 213 218 242 305 259
252 273 644 524 617 730 828 1398 1416 1338 1140 810 605 517 290 234 149 86 26 4 0 0 0 3 0 2 9 21 57 108 172 258
198 278 520 736 789 997 1284 1535 1526 1344 909 662 542 425 331 167 38 14 8 10 0 0 0 0 0 0 0 0 0 0 1 4

GFSFLT2_con_mucape_132.txt.gz
CAPE
0 0 0 0 162 153 145 29 36 130 37 8 100 151 179 108 411 550 239 203 10 172 554 608 821 845 1629 2287 2328 2068 1770 2316
37 0 0 29 72 85 98 1 94 104 14 0 10 49 275 74 105 104 369 293 241 91 283 554 784 838 1046 2192 2437 2258 1784 1818
14 102 113 367 235 12 69 136 190 139 8 43 140 189 350 328 213 228 184 255 615 506 90 570 432 678 790 1624 2333 2235 1870 1584
34 67 117 100 0 27 222 173 145 52 78 76 512 636 285 66 418 264 185 158 130 179 301 294 782 757 761 1163 1797 1808 1685 2077
10 5 27 104 32 13 25 2 213 177 31 66 65 594 469 56 6 96 107 98 136 151 207 1032 1152 2252 512 999 1324 1666 2013 1582
1 43 45 21 39 120 17 34 144 42 4 0 96 862 885 25 314 395 26 46 66 119 430 1333 1387 2832 847 695 1300 1732 1443 1586
0 46 48 16 8 93 42 62 10 41 37 355 58 268 650 773 468 588 249 397 552 239 83 870 1353 2068 2652 2202 527 2756 2372 2175
0 1 8 36 11 25 45 0 2 72 189 0 4 638 519 505 401 210 155 122 165 664 66 403 571 919 2245 2808 3043 3371 3053 2793
26 46 17 29 44 25 47 44 60 260 431 11 5 151 463 314 167 138 90 137 104 145 283 494 574 545 873 1296 1785 1941 2619 2126
2 0 9 46 48 30 29 53 81 407 354 2 7 328 351 351 158 180 116 119 163 170 240 275 373 218 435 561 809 1476 1555 1773
0 3 4 14 117 86 97 53 4 30 393 98 262 412 188 184 153 75 75 95 147 185 181 115 95 153 269 303 557 762 1001 1278
0 0 1 126 119 60 27 11 385 219 311 403 88 360 505 264 174 118 63 74 99 111 132 130 83 62 455 647 526 1016 1030 914
10 5 2 214 113 44 27 229 479 326 89 143 461 399 509 350 188 305 365 161 130 103 113 179 164 309 487 455 461 645 1103 996
43 59 49 146 71 57 374 191 242 460 470 547 322 326 607 583 348 210 171 169 77 77 102 299 218 478 301 161 207 370 408 280
34 25 454 194 129 41 37 75 46 225 637 490 132 94 656 687 485 325 249 151 84 123 61 127 268 356 348 251 160 205 179 147
43 57 10 11 63 57 87 98 123 159 473 866 701 559 567 577 512 335 220 174 178 106 54 96 119 177 204 247 244 221 210 178
111 79 109 44 101 221 136 184 292 386 749 816 619 661 574 540 581 302 218 192 106 56 37 51 76 97 128 187 209 256 273 290
19 450 313 314 241 272 303 359 578 707 1101 973 872 768 565 520 392 275 268 172 231 69 41 14 4 7 41 97 160 147 138 143
172 13 69 185 304 194 12 175 606 1203 1344 983 819 749 590 527 437 315 166 133 14 79 10 3 2 0 0 5 15 21 18 27

GFSFLT2_con_mucape_135.txt.gz
CAPE
0 0 0 0 1 119 179 125 15 35 130 70 13 35 36 37 79 162 312 144 104 43 62 102 73 416 710 1068 872 1064 891 1244
7 1 32 51 0 2 30 32 6 127 10 43 59 79 69 68 129 159 399 216 113 57 43 155 225 556 823 971 954 863 965 1344
0 65 47 30 12 0 20 121 58 25 95 32 37 2 47 81 286 462 298 175 193 171 59 169 222 653 908 1055 1012 825 702 1034
26 1 1 10 0 0 0 154 38 1 0 128 65 101 60 51 407 223 111 140 160 127 104 236 140 1005 995 1195 1235 1143 982 853
13 1 4 4 0 22 1 0 73 3 63 32 113 57 93 101 294 506 236 222 110 121 92 134 344 417 1123 1168 1309 1378 1171 1029
0 7 53 3 0 38 23 2 55 39 57 46 24 124 7 175 379 144 135 172 95 130 85 68 201 541 645 1088 1250 1116 1177 1045
0 1 21 3 3 6 61 10 0 5 93 67 80 152 182 249 506 271 188 132 134 137 79 36 84 483 464 870 863 838 934 636
0 5 21 5 42 33 20 1 50 56 65 140 105 505 436 234 316 226 123 234 231 109 90 32 58 95 290 300 205 0 0 750
0 0 0 4 51 53 10 30 65 8 30 37 40 349 469 277 201 161 172 89 213 207 87 35 33 177 201 646 460 95 602 1109
0 0 0 0 70 6 135 66 12 25 5 66 97 437 402 208 121 112 110 103 130 117 107 142 184 212 219 320 796 892 479 576
0 0 0 0 99 78 254 278 534 361 163 116 373 236 197 188 101 105 90 311 102 81 146 222 246 192 225 213 241 322 489 541
0 0 0 190 88 68 33 292 398 366 152 193 306 391 306 193 88 53 52 254 138 117 147 145 163 136 333 111 128 192 516 370
0 0 0 127 77 9 10 378 247 393 583 334 201 45 292 192 146 111 82 155 117 101 288 197 243 191 390 370 325 422 321 181
62 71 74 140 93 259 230 97 465 464 449 366 147 85 277 228 225 163 146 164 115 130 241 464 341 294 452 547 363 486 602 259
28 19 151 168 48 1 3 26 263 665 442 290 387 342 358 256 305 300 194 206 179 112 180 359 582 507 561 227 305 392 402 276
58 50 69 37 27 58 0 0 22 485 483 202 120 87 237 373 293 227 146 317 138 164 85 154 255 240 243 244 178 164 172 130
17 104 108 2 95 158 27 0 17 125 601 271 228 403 482 364 316 218 127 293 284 173 91 85 149 205 197 220 250 240 230 172
6 33 41 40 35 98 25 53 110 111 482 548 416 445 358 371 256 259 195 299 161 282 22 42 34 91 139 144 199 208 219 233
47 97 9 101 1 0 0 11 0 8 0 158 469 511 428 300 217 194 129 193 217 216 8 28 20 11 41 73 86 93 113 126

GFSFLT2_con_mucape_138.txt.gz
CAPE
0 1 0 0 0 23 22 11 0 3 72 15 8 38 3 22 65 74 99 300 221 109 85 203 430 593 784 885 716 978 737 644
9 22 16 0 3 8 5 0 0 3 36 2 4 26 36 50 38 95 151 454 304 247 81 182 251 653 569 890 660 674 591 747
5 5 4 1 0 1 42 16 0 0 15 51 56 61 27 36 27 70 230 306 294 236 92 100 142 529 703 809 606 578 580 781
0 0 0 0 0 0 0 0 0 0 0 259 165 28 5 30 30 17 108 55 88 125 155 234 118 208 576 834 698 672 726 1027
0 0 0 0 0 0 0 0 3 0 0 120 129 79 1 3 18 23 76 107 94 77 107 133 334 450 530 776 777 691 622 809
0 0 0 3 0 0 7 3 0 7 53 118 85 87 2 0 2 166 173 135 105 76 61 171 336 577 753 999 958 826 715 629
0 0 0 0 0 1 29 5 18 12 114 97 38 1 0 0 80 105 50 131 154 109 84 62 166 327 432 587 766 922 943 842
0 0 0 0 0 0 39 40 24 79 124 87 13 169 120 80 159 135 105 77 84 70 62 59 53 119 175 232 451 617 725 980
0 0 0 0 23 21 29 50 34 9 90 195 147 418 351 221 136 50 31 63 125 42 37 38 48 44 67 74 125 412 461 597
0 0 0 5 19 12 45 42 81 70 152 166 268 549 423 138 68 64 80 52 52 11 1 0 32 37 38 60 41 133 68 340
0 0 0 0 47 88 111 401 264 172 143 632 479 455 254 196 70 58 40 87 77 41 0 0 16 49 61 64 218 332 172 289
0 0 0 18 23 198 203 199 426 357 296 671 276 116 190 173 50 10 20 52 96 58 12 6 21 75 195 108 160 228 257 130
0 0 0 18 40 54 14 79 458 304 279 276 284 177 221 185 82 25 39 52 61 19 12 44 17 22 231 177 256 217 58 75
0 0 0 36 6 11 158 311 247 370 213 267 374 159 324 224 140 88 101 34 25 15 76 233 97 192 170 149 219 337 138 66
0 2 2 34 1 81 59 204 190 275 299 213 137 275 477 320 226 128 99 45 35 47 153 231 229 295 242 216 334 303 275 212
6 18 53 59 4 0 0 38 294 450 355 328 121 166 347 290 302 241 226 120 24 69 189 128 253 268 218 257 356 314 258 156
0 2 29 0 1 0 0 0 297 601 512 290 300 315 270 417 441 366 225 147 83 34 21 33 111 154 161 221 127 104 113 112
1 0 0 0 0 0 0 0 353 570 468 282 208 151 238 371 359 294 243 179 86 75 73 71 43 184 155 298 267 163 104 81
0 0 0 0 0 0 0 0 0 56 435 310 274 238 157 311 283 240 215 177 198 235 52 0 5 23 61 112 117 119 356 175

GFSFLT2_con_mucape_141.txt.gz
CAPE
0 0 0 0 1 4 18 10 0 0 29 83 43 40 53 91 29 23 37 99 63 76 144 194 162 351 427 397 404 595 563 420
14 14 3 0 16 15 15 0 0 0 34 18 3 72 82 130 121 43 100 111 198 126 87 124 142 295 352 384 347 370 383 379
0 3 4 9 3 0 4 7 0 0 0 26 47 54 74 92 85 67 192 356 220 153 161 83 130 295 276 421 391 366 450 470
3 3 0 0 0 0 0 0 7 0 0 152 162 17 2 14 18 4 108 139 163 183 120 136 131 232 326 429 521 400 378 528
0 0 0 0 0 0 0 7 4 0 0 170 105 166 38 0 0 47 75 149 132 93 119 132 108 151 413 478 530 427 418 412
0 0 0 0 0 0 0 0 0 0 0 61 69 74 32 0 63 179 152 207 95 21 64 80 212 261 341 569 641 552 486 513
0 0 0 0 0 0 2 18 9 0 3 0 57 43 27 0 229 150 115 139 154 37 43 85 202 371 522 654 781 703 567 496
0 0 0 0 0 0 0 18 30 11 8 63 97 60 103 55 131 135 127 119 285 162 78 70 62 145 205 425 620 567 779 596
0 0 0 0 0 0 0 1 54 37 0 145 67 63 153 312 196 110 79 102 170 120 135 105 79 26 69 87 170 234 301 267
0 0 0 0 2 19 14 32 34 23 171 217 173 410 592 569 291 94 85 116 181 102 107 105 81 21 13 51 106 103 100 173
0 0 0 0 4 59 50 184 209 106 256 443 612 617 510 435 204 125 67 77 111 157 64 52 78 70 40 64 49 11 6 30
0 0 0 0 23 73 48 60 335 226 478 515 464 66 9 178 217 143 56 62 80 134 106 54 66 85 162 136 251 258 44 1
0 0 0 0 23 118 27 10 238 299 412 515 311 109 45 206 246 130 89 81 76 72 140 161 91 138 241 151 181 226 144 104
0 0 0 0 8 11 36 144 247 281 298 395 299 126 126 228 208 123 164 111 34 67 195 374 443 191 436 425 238 41 85 81
0 0 0 0 0 0 218 217 259 308 228 186 160 124 172 257 252 120 146 62 6 24 102 274 506 285 248 299 269 215 154 63
1 0 0 0 0 46 178 163 156 224 227 221 216 155 124 338 236 170 115 33 0 0 31 112 251 285 336 493 500 359 330 104
3 3 2 13 2 0 19 30 143 254 230 209 112 127 137 368 209 227 172 69 0 4 24 23 128 281 197 145 184 608 356 79
4 3 0 0 0 0 0 13 223 430 389 337 294 150 237 240 228 304 193 103 26 2 1 8 72 218 240 260 260 188 203 101
4 5 0 0 0 0 0 103 201 438 408 387 307 258 144 133 346 252 184 104 56 0 17 0 22 69 85 213 253 249 216 179

GFSFLT2_con_mucape_147.txt.gz
CAPE
0 0 0 0 0 0 0 0 12 13 4 25 125 101 99 127 281 258 253 256 241 223 476 653 705 857 939 1024 1137 1082 921 1025
0 0 0 0 0 2 3 12 0 0 9 35 85 165 109 256 308 235 240 388 238 227 318 499 588 681 829 892 1039 1031 983 1025
0 6 15 12 29 0 5 4 10 1 0 19 52 142 201 251 208 130 208 265 757 338 181 278 255 489 671 811 890 966 1003 1061
0 0 0 0 0 14 2 13 29 28 0 0 150 130 140 215 102 1 6 309 630 610 436 284 192 427 468 665 769 818 860 1107
11 1 0 1 0 0 0 6 71 2 0 6 300 260 160 83 67 52 252 376 267 463 523 134 201 523 527 559 694 756 863 899
0 0 0 0 0 0 0 0 1 13 0 0 29 303 254 257 72 149 439 479 522 115 61 162 329 314 791 481 351 720 794 825
0 0 0 0 0 0 0 0 0 0 22 32 35 84 287 93 197 279 215 321 413 292 73 41 163 312 647 823 1009 1025 1041 945
0 0 0 0 0 0 0 0 0 0 15 27 55 183 260 220 235 219 256 281 261 272 94 46 145 272 229 557 824 937 1146 1205
0 0 0 0 0 0 0 0 0 0 29 151 136 218 241 268 297 361 422 235 218 197 162 125 44 118 147 173 443 783 977 1050
0 0 0 0 0 0 0 0 0 4 33 121 149 129 379 601 631 572 295 270 248 258 167 101 138 121 83 84 121 153 462 319
0 0 0 0 0 0 0 0 4 29 260 298 500 299 187 573 604 415 354 313 275 199 153 146 130 73 53 35 81 111 126 80
0 0 0 0 0 1 14 15 194 112 399 586 435 98 82 439 450 421 352 339 330 293 186 79 61 47 76 116 53 154 74 132
0 0 0 0 55 1 38 0 338 265 475 589 406 142 281 431 483 407 404 424 328 152 111 64 53 85 80 154 193 234 313 188
0 0 0 0 78 89 125 0 553 453 626 700 330 154 454 496 463 457 458 333 214 102 89 33 3 90 75 251 196 206 159 125
0 0 3 8 132 167 71 424 518 605 641 733 569 288 311 469 485 520 494 383 128 38 42 16 7 204 356 183 182 132 106 46
0 0 0 0 13 2 61 307 454 433 368 565 233 227 213 332 463 535 513 332 114 16 1 5 0 59 336 318 213 207 148 68
0 0 0 4 58 43 185 195 252 280 296 290 250 185 142 353 506 608 568 315 118 32 4 2 4 0 43 319 233 349 137 72
6 191 247 230 117 23 187 218 193 276 340 356 339 420 208 325 544 596 560 371 224 84 22 33 13 75 75 83 229 220 309 147
0 0 0 1 54 59 92 71 77 119 204 226 238 303 223 307 341 354 604 475 319 188 76 69 101 65 132 178 94 184 132 208

GFSFLT2_con_mucape_150.txt.gz
CAPE
0 0 5 34 11 3 3 0 1 35 1 8 100 374 284 207 290 467 630 754 676 856 942 1109 1191 1359 1457 1679 2133 1976 1682 1773
0 0 0 6 11 13 12 22 44 47 2 13 27 127 184 246 464 655 721 703 945 809 788 939 1082 1239 1414 1518 1812 1938 1663 1614
28 13 47 0 3 1 10 17 36 34 35 4 15 143 209 293 287 317 337 614 823 1234 702 851 995 1100 1124 1354 1521 1766 1709 1593
62 37 15 59 19 42 52 86 54 4 6 0 131 207 276 255 222 151 118 522 632 1175 1000 806 864 920 940 1178 1360 1438 1530 1733
35 14 8 0 1 7 3 5 8 6 51 70 440 451 424 253 170 191 183 696 558 808 1225 1147 1035 998 877 1024 1105 1229 1488 1533
70 70 18 16 0 0 0 16 16 5 20 31 71 443 523 512 304 81 398 545 931 497 397 565 927 1013 1167 1499 1344 1208 1232 1447
52 0 0 0 0 0 0 0 1 17 8 10 27 59 448 625 220 372 278 396 555 709 468 12 292 746 895 1442 1704 1443 1089 1349
55 0 0 0 0 0 0 0 0 0 0 9 150 340 490 558 486 372 253 348 361 425 516 290 246 515 774 946 1107 1872 1497 1513
75 21 0 0 0 0 0 0 0 0 4 133 352 644 634 428 356 311 291 423 312 570 541 653 495 360 220 721 796 1362 1774 1756
52 59 2 1 0 0 0 0 0 0 7 224 330 481 437 299 211 427 427 409 551 586 470 475 600 597 376 172 377 659 873 1313
106 101 24 0 0 0 0 0 0 0 13 201 379 440 668 477 357 333 449 633 610 527 493 396 425 387 301 427 430 533 634 657
64 46 98 45 0 0 0 0 0 0 221 526 617 315 77 411 370 316 471 522 549 525 483 449 402 434 345 365 492 530 618 306
130 46 44 1 3 43 20 158 104 35 404 681 528 412 373 401 432 377 519 584 537 414 364 368 358 362 413 406 465 555 355 216
155 73 38 0 177 25 257 369 492 473 668 827 750 414 431 399 442 471 607 528 360 319 265 302 304 285 329 432 600 572 554 344
35 71 277 68 86 210 100 249 499 462 776 1007 416 366 356 378 481 618 643 617 302 214 293 289 261 241 362 236 285 333 292 199
115 19 38 56 267 384 176 69 284 336 718 710 265 108 126 212 518 671 798 745 398 299 232 206 205 325 212 236 355 309 325 53
39 123 62 67 195 223 206 444 299 434 351 303 58 80 117 465 599 691 900 783 488 407 256 178 106 196 184 92 287 258 182 175
9 142 206 275 239 272 311 358 271 268 502 693 617 538 590 614 948 1021 1113 940 726 561 362 242 163 229 211 74 222 352 454 397
28 59 217 192 324 271 344 326 277 268 331 358 390 339 634 864 1122 984 1210 1058 891 743 487 319 199 282 140 92 82 169 288 332